GW4159 Weather Reports


Display with metric or nautical units.
time (UTC)temp
F
wind
direction
speed
MPH
gust
MPH
rain 1hr
in
rain 24hr
in
rain mn
in
humidity
%
barometer
mb
20260509074543 63 268 6.0 9.0 0.00 0.00 0.00 72 1016.8
20260509073037 63 244 5.0 8.0 0.00 0.00 0.00 73 1016.9
20260509071540 62 295 5.0 8.0 0.00 0.00 0.00 74 1016.9
20260509070029 61 249 7.0 9.0 0.00 0.00 0.00 75 1016.9
20260509064528 60 256 7.0 9.0 0.00 0.00 0.00 76 1016.7
20260509063027 59 270 6.0 9.0 0.00 0.00 0.00 77 1016.7
20260509061525 59 264 6.0 8.0 0.00 0.00 0.00 78 1016.8
20260509060024 58 249 7.0 10.0 0.00 0.00 0.00 81 1016.8
20260509054522 58 257 6.0 8.0 0.00 0.00 0.00 83 1016.7
20260509053028 57 251 5.0 9.0 0.00 0.00 0.00 84 1016.7
20260509051518 57 243 7.0 11.0 0.00 0.00 0.00 84 1016.6
20260509050021 57 250 7.0 9.0 0.00 0.00 0.00 84 1016.4
20260509044515 57 250 4.0 9.0 0.00 0.00 0.00 85 1016.3
20260509043012 57 250 4.0 7.0 0.00 0.00 0.00 85 1016.1
20260509041509 57 249 3.0 7.0 0.00 0.00 0.00 86 1016.0
20260509040023 57 251 2.0 4.0 0.00 0.00 0.00 86 1015.8
20260509034507 57 251 4.0 7.0 0.00 0.00 0.00 86 1015.8
20260509033007 57 258 5.0 7.0 0.00 0.00 0.00 86 1015.9
20260509031506 57 250 5.0 8.0 0.00 0.00 0.00 86 1016.0
20260509030001 57 249 5.0 9.0 0.00 0.00 0.00 86 1015.9
20260509024602 57 359 5.0 8.0 0.00 0.00 0.00 85 1015.9
20260509023100 58 242 5.0 8.0 0.00 0.00 0.00 85 1016.0
20260509021557 58 257 8.0 11.0 0.00 0.00 0.00 84 1015.9
20260509014549 60 255 6.0 8.0 0.00 0.00 0.00 82 1015.8
20260509013048 61 216 4.0 6.0 0.00 0.00 0.00 82 1015.7
20260509011553 60 183 3.0 5.0 0.00 0.00 0.00 83 1015.6
20260509010043 60 245 4.0 7.0 0.00 0.00 0.00 84 1015.6
20260509004553 60 245 4.0 5.0 0.00 0.00 0.00 83 1015.5
20260509003050 61 245 4.0 7.0 0.00 0.00 0.00 83 1015.6
20260509001538 61 207 2.0 4.0 0.00 0.00 0.00 82 1015.6
20260509000034 62 176 1.0 4.0 0.00 0.00 0.00 83 1015.6
20260508234532 63 160 1.0 3.0 0.00 0.00 0.00 82 1015.5
20260508233031 63 158 0.0 1.0 0.00 0.00 0.00 82 1015.6
20260508231530 63 159 2.0 4.0 0.00 0.00 0.00 82 1015.7
20260508230059 62 160 0.0 0.0 0.00 0.00 0.00 82 1015.8
20260508224640 63 159 0.0 0.0 0.00 0.00 0.00 82 1015.8
20260508223056 63 160 0.0 0.0 0.00 0.00 0.00 81 1015.7
20260508221554 63 160 0.0 0.0 0.00 0.00 0.00 80 1015.7
20260508220055 64 160 0.0 0.0 0.00 0.00 0.00 80 1015.7
20260508214552 64 160 0.0 0.0 0.00 0.00 0.00 78 1015.7
20260508213048 63 159 0.0 0.0 0.00 0.00 0.00 77 1015.7
20260508211552 63 160 0.0 0.0 0.00 0.00 0.00 76 1015.5
20260508210048 63 159 0.0 0.0 0.00 0.00 0.00 76 1015.5
20260508204546 63 159 0.0 0.0 0.00 0.00 0.00 77 1015.5
20260508203044 63 159 0.0 0.0 0.00 0.00 0.00 77 1015.4
20260508201542 63 160 0.0 2.0 0.00 0.00 0.00 78 1015.5
20260508200040 64 160 1.0 5.0 0.00 0.00 0.00 78 1015.4
20260508194541 64 151 2.0 5.0 0.00 0.00 0.00 78 1015.2
20260508193035 64 170 1.0 3.0 0.00 0.00 0.00 77 1015.1
20260508191541 64 176 1.0 4.0 0.00 0.00 0.00 76 1015.0
20260508190035 64 166 3.0 5.0 0.00 0.00 0.00 75 1014.8
20260508184536 64 183 2.0 4.0 0.00 0.00 0.00 76 1014.7
20260508183034 64 172 2.0 4.0 0.00 0.00 0.00 76 1014.5
20260508181532 64 165 2.0 6.0 0.00 0.00 0.00 76 1014.3
20260508180033 64 153 3.0 6.0 0.00 0.00 0.00 77 1014.2
20260508174533 64 145 2.0 4.0 0.00 0.00 0.00 77 1014.3
20260508173101 64 156 3.0 5.0 0.00 0.00 0.00 76 1014.2
20260508171600 65 160 2.0 6.0 0.00 0.00 0.00 76 1014.1
20260508170058 65 154 3.0 5.0 0.00 0.00 0.00 75 1014.1
20260508164558 65 159 0.0 6.0 0.00 0.00 0.00 75 1014.2
20260508163057 65 155 3.0 5.0 0.00 0.00 0.00 74 1014.1
20260508161600 65 135 2.0 4.0 0.00 0.00 0.00 74 1014.0
20260508160054 65 113 3.0 4.0 0.00 0.00 0.00 74 1014.0
20260508154610 65 112 3.0 6.0 0.00 0.00 0.00 74 1014.0
20260508153054 65 87 2.0 4.0 0.00 0.00 0.00 75 1014.1
20260508151554 64 86 3.0 4.0 0.00 0.00 0.00 74 1014.1
20260508150059 65 81 2.0 5.0 0.00 0.00 0.00 75 1014.1
20260508144550 65 72 4.0 5.0 0.00 0.00 0.00 75 1014.2
20260508143106 64 58 3.0 4.0 0.00 0.00 0.00 76 1014.3
20260508141550 64 66 3.0 6.0 0.00 0.00 0.00 77 1014.4
20260508140059 64 63 4.0 6.0 0.00 0.00 0.00 77 1014.3
20260508134546 64 54 5.0 7.0 0.00 0.00 0.00 77 1014.3
20260508133052 64 58 5.0 8.0 0.00 0.00 0.00 78 1014.5
20260508131545 64 54 5.0 7.0 0.00 0.00 0.00 78 1014.6
20260508130047 64 48 7.0 9.0 0.00 0.00 0.00 77 1014.6
20260508130044 64 33 7.0 9.0 0.00 0.00 0.00 77 1014.6
20260508124541 64 39 6.0 9.0 0.00 0.00 0.00 77 1014.5
20260508123040 65 48 7.0 9.0 0.00 0.00 0.00 75 1014.6
20260508121539 65 73 5.0 8.0 0.00 0.00 0.00 73 1014.7
20260508120043 65 64 5.0 8.0 0.00 0.00 0.00 73 1014.8
20260508114509 65 85 6.0 8.0 0.00 0.00 0.00 74 1014.8
20260508113009 65 83 5.0 7.0 0.00 0.00 0.00 73 1014.9
20260508111505 65 87 4.0 6.0 0.00 0.00 0.00 74 1014.9
20260508110005 64 75 5.0 8.0 0.00 0.00 0.00 74 1014.9
20260508104504 65 63 5.0 9.0 0.00 0.00 0.00 75 1015.0
20260508103003 64 63 6.0 9.0 0.00 0.00 0.00 76 1015.0
20260508101559 64 77 7.0 10.0 0.00 0.00 0.00 76 1015.0
20260508100058 64 71 7.0 9.0 0.00 0.00 0.00 76 1015.0
20260508094557 64 76 8.0 9.0 0.00 0.00 0.00 75 1015.0
20260508093056 65 70 4.0 8.0 0.00 0.00 0.00 75 1015.1
20260508091602 64 62 4.0 9.0 0.00 0.00 0.00 77 1015.1
20260508090050 64 77 7.0 9.0 0.00 0.00 0.00 78 1015.1
20260508084557 64 56 5.0 10.0 0.00 0.00 0.00 79 1015.0
20260508083055 64 76 7.0 11.0 0.00 0.00 0.00 80 1015.0
20260508081548 64 59 5.0 9.0 0.00 0.00 0.00 80 1014.9
20260508080100 64 91 5.0 8.0 0.00 0.00 0.00 80 1014.9